Погода в Березанской

Россия / Краснодарский край     45°42′07″N   39°35′03″E
темп.,
°C
ветер,
м/с
пор.,
м/с
влажн.,
%
обл.,
%
осадки,
мм/ч
давл.,
гПа
погр.,
м
28 января, чт
чт2800:00+4вюв5980100 0.0 1004192
03:00+4в5880100 0.0 1003147
06:00+3вюв348199 0.0 100253
09:00+4вюв2277100 0.0 100327
12:00+7юз51196100 1.1 1005388
15:00+7юз71285100 3.5 1007920
18:00+5юз4118798 0.4 1009506
21:00+4юз5137899 0.4 1010675
29 января, пт
пт2900:00+3юз51278100 0.0 1012398
03:00+2юз41179100 0.0 1012310
06:00+2ююз41080100 0.0 1013268
09:00+2ююз5117889 0.0 1013348
12:00+6юз7126318 0.0 10131590
15:00+7юз7115426 0.1 10121913
18:00+4ююз5126823 0.0 1012407
21:00+3ююз5127462 0.0 1012421
30 января, сб
сб3000:00+3ююз51378100 0.0 1012406
03:00+2ю5138776 0.0 1011432
06:00+2ю4128997 0.0 1011299
09:00+3ю6148371 0.0 1011565
12:00+8ююз7125847 0.0 10101204
15:00+10ююз6115036 0.0 10081639
18:00+6юв496315 0.0 1008200
21:00+4вюв4107258 0.0 1007243
31 января, вс
вс3100:00+3вюв4880100 0.0 1006212
03:00+2юв368396 0.0 1004131
06:00+5ю61973100 0.1 1004491
09:00+8ююз71776100 0.1 1006868
12:00+8юз81681100 0.3 1008840
15:00+8зюз61391100 0.9 1009615
18:00+8зюз41189100 1.1 1012564
21:00+7зюз41287100 1.2 1014365
1 февраля, пн
пн100:00+6зюз1192100 0.0 101422
03:00+6юв4692100 0.0 1014137
06:00+6вюв51485100 0.0 1013317
09:00+6юв51168100 0.0 1012285
12:00+10юв5859100 0.0 1011344
15:00+12юв5958100 0.0 1010349
18:00+11ю41558100 0.0 1011551
21:00+11юз71755100 0.1 1012445